[[{"header":{"parameterUnit":"m.s-1","parameterCategory":1,"la1":30.2992,"la2":30.254,"lo1":-89.0895,"lo2":-89.0443,"dy":0.0025,"dx":0.0025,"nx":19,"ny":19,"refTime":"2026-04-06T21:00:00:Z","depth":0,"parameterNumber":2,"parameterNumberName":"U-component_of_WINDS"},"data":[0,0,0,-3.3928,-3.3933,-3.4164,-3.4165,-3.4501,-3.4505,0,0,0,0,0,0,0,0,0,0,0,-3.3881,-3.3884,-3.3927,-3.3934,-3.4164,-3.4165,-3.4501,-3.4505,0,0,0,0,0,0,0,0,0,0,0,-3.388,-3.3883,-3.3887,-3.3935,-3.4164,-3.4165,-3.45,-3.4312,0,0,0,0,0,0,0,0,0,0,-3.4081,-3.4059,-3.3882,-3.3887,-3.3936,-3.4164,-3.4165,-3.4302,-3.4324,-3.4414,0,-3.4496,0,-3.4506,-3.453,-3.4531,0,0,0,-3.3919,-3.4041,-3.4083,-3.3888,-3.3938,-3.4163,-3.4056,-3.4314,-3.4338,-3.4442,-3.4501,-3.4512,-3.4511,-3.4532,-3.4534,-3.5097,-3.51,0,0,-3.3906,-3.3935,-3.4066,-3.41,-3.4063,-3.4049,-3.4063,-3.4328,-3.4395,-3.4502,-3.4519,-3.4517,-3.4535,-3.4537,-3.5094,-3.5098,0,0,0,-3.3879,-3.3927,-3.3962,-3.4087,-3.4125,-3.4056,-3.4072,-3.4383,-3.4392,-3.4523,-3.4521,-3.4537,-3.4541,-3.509,-3.5095,-3.5294,0,0,0,-3.3871,-3.3912,-3.3957,-3.3978,-3.4121,-3.4256,-3.4123,-3.4373,-3.4402,-3.4519,-3.4537,-3.4545,-3.5086,-3.5093,-3.528,-3.5385,0,0,0,-3.3859,-3.391,-3.395,-3.3979,-3.4078,-3.4251,-3.4275,-3.4379,-3.4402,-3.4531,-3.4546,-3.5084,-3.5092,-3.5268,-3.5365,-3.5547,0,0,0,-3.3855,-3.4122,-3.3954,-3.4251,-3.4077,-3.4369,-3.4272,-3.4489,-3.4622,-3.4539,-3.5087,-3.5095,-3.5264,-3.5353,-3.5534,-3.5711,-3.5785,0,0,-3.4209,-3.4166,-3.4338,-3.4194,-3.4524,-3.4331,-3.4692,-3.4786,-3.4771,-3.499,-3.5004,-3.5285,-3.5364,-3.5544,-3.6176,-3.6235,0,0,0,-3.4461,-3.4586,-3.4666,-3.4794,-3.487,-3.4948,-3.4983,-3.5018,-3.5202,-3.4889,-3.5394,-3.544,-3.5545,-3.5629,-3.5679,-3.5771,-3.5132,-3.5131,-3.513,-3.501,-3.4974,-3.5259,-3.5253,-3.5378,-3.5411,-3.5511,-3.5565,-3.5493,-3.5613,-3.5681,-3.6068,-3.6166,-3.6204,-3.63,-3.5764,-3.5764,-3.5765,-3.5766,-3.5532,-3.5707,-3.5602,-3.5843,-3.5805,-3.6007,-3.6049,-3.5992,-3.6178,-3.6013,-3.6104,-3.5935,-3.627,-3.6352,-3.578,-3.5778,-3.5776,-3.5774,-3.5773,-3.5895,-3.5973,-3.6008,-3.619,-3.6334,-3.6316,-3.65,-3.6457,-3.6418,-3.6507,-3.6579,-3.6575,-3.6574,-3.6542,-3.6543,-3.6545,-3.6546,-3.6547,-3.6548,-3.6262,-3.6294,-3.6453,-3.6556,-3.6633,-3.673,-3.6764,-3.684,-3.6915,-3.687,-3.687,-3.6792,-3.6305,-3.6189,-3.6569,-3.6565,-3.6562,-3.656,-3.6559,-3.682,-3.6686,-3.6932,-3.7009,-3.7128,-3.7277,-3.7216,-3.7375,-3.7431,-3.7525,-3.7424,-3.7068,-3.7022,-3.6982,-3.6887,-3.7425,-3.7425,-3.7425,-3.7425,-3.7134,-3.7102,-3.7346,-3.7473,-3.7592,-3.7562,-3.7847,-3.7876,-3.7886,-3.792,-3.7833,-3.7699,-3.7659,-3.7638,-3.7584,-3.7495,-3.8175,-3.8176,-3.8177,-3.7478,-3.7457,-3.7707,-3.7711,-3.78,-3.7879,-3.8147,-3.8301,-3.8283,-3.8206,-3.7947,-3.7916,-3.7698,-3.7628,-3.7555,-3.7471,-3.7306,0,0]},{"header":{"parameterUnit":"m.s-1","parameterCategory":1,"la1":30.2992,"la2":30.254,"lo1":-89.0895,"lo2":-89.0443,"dy":0.0025,"dx":0.0025,"nx":19,"ny":19,"refTime":"2026-04-06T21:00:00:Z","depth":0,"parameterNumber":3,"parameterNumberName":"V-component_of_WINDS"},"data":[0,0,0,-4.7809,-4.7811,-4.7913,-4.7913,-4.8059,-4.8061,0,0,0,0,0,0,0,0,0,0,0,-4.779,-4.7792,-4.7809,-4.7811,-4.7913,-4.7913,-4.8059,-4.8061,0,0,0,0,0,0,0,0,0,0,0,-4.779,-4.7791,-4.7793,-4.7812,-4.7913,-4.7913,-4.8059,-4.7976,0,0,0,0,0,0,0,0,0,0,-4.7874,-4.7869,-4.7791,-4.7793,-4.7813,-4.7913,-4.7914,-4.7971,-4.7981,-4.802,0,-4.8061,0,-4.8063,-4.8072,-4.8072,0,0,0,-4.7802,-4.7862,-4.7878,-4.7793,-4.7814,-4.7913,-4.7865,-4.7976,-4.7987,-4.8033,-4.8063,-4.8067,-4.8066,-4.8073,-4.8073,-4.8335,-4.8336,0,0,-4.7797,-4.7815,-4.7871,-4.7886,-4.7874,-4.7861,-4.7868,-4.7983,-4.8015,-4.8063,-4.8071,-4.8068,-4.8074,-4.8075,-4.8333,-4.8335,0,0,0,-4.7787,-4.7811,-4.7825,-4.788,-4.7898,-4.7865,-4.7872,-4.801,-4.8013,-4.8072,-4.807,-4.8075,-4.8077,-4.8331,-4.8334,-4.8433,0,0,0,-4.7783,-4.7805,-4.7823,-4.7835,-4.7896,-4.7956,-4.7898,-4.8005,-4.8018,-4.8069,-4.8075,-4.8078,-4.8329,-4.8333,-4.8426,-4.8476,0,0,0,-4.778,-4.7805,-4.7824,-4.7836,-4.788,-4.7954,-4.7963,-4.8008,-4.8017,-4.8072,-4.8079,-4.8328,-4.8332,-4.842,-4.8467,-4.8549,0,0,0,-4.7781,-4.7911,-4.7826,-4.7969,-4.788,-4.8015,-4.7962,-4.8061,-4.8121,-4.8076,-4.833,-4.8334,-4.8418,-4.8461,-4.8543,-4.8622,-4.8657,0,0,-4.7955,-4.7933,-4.8016,-4.7942,-4.8097,-4.7997,-4.8166,-4.8203,-4.8191,-4.8287,-4.8293,-4.8428,-4.8466,-4.8548,-4.8847,-4.8874,0,0,0,-4.8077,-4.8137,-4.8173,-4.8231,-4.8263,-4.8293,-4.8302,-4.8315,-4.8395,-4.8245,-4.848,-4.8502,-4.8549,-4.8586,-4.861,-4.8648,-4.8352,-4.8351,-4.8351,-4.835,-4.8327,-4.8462,-4.8451,-4.8507,-4.8514,-4.8556,-4.8575,-4.8536,-4.8592,-4.862,-4.8804,-4.8848,-4.8866,-4.8906,-4.8661,-4.8661,-4.8661,-4.8662,-4.8602,-4.8682,-4.8625,-4.8736,-4.871,-4.8802,-4.8812,-4.8781,-4.8861,-4.8782,-4.8822,-4.8737,-4.8897,-4.8931,-4.8669,-4.8668,-4.8667,-4.8666,-4.8665,-4.8777,-4.8812,-4.8825,-4.8904,-4.8967,-4.895,-4.9029,-4.9003,-4.8979,-4.9019,-4.9044,-4.9043,-4.9037,-4.9033,-4.9033,-4.9034,-4.9035,-4.9035,-4.9035,-4.8955,-4.8966,-4.9037,-4.9079,-4.9111,-4.9149,-4.9155,-4.9185,-4.9211,-4.9185,-4.9185,-4.914,-4.8918,-4.8862,-4.9045,-4.9044,-4.9042,-4.9041,-4.9041,-4.9218,-4.9153,-4.9263,-4.9295,-4.934,-4.9402,-4.9367,-4.9429,-4.945,-4.9489,-4.9434,-4.9275,-4.925,-4.9231,-4.9184,-4.944,-4.944,-4.944,-4.944,-4.9366,-4.935,-4.9454,-4.9506,-4.9554,-4.9532,-4.9653,-4.9658,-4.9652,-4.9663,-4.9621,-4.9558,-4.9539,-4.9525,-4.95,-4.9456,-4.9775,-4.9776,-4.9776,-4.9526,-4.9513,-4.9623,-4.9616,-4.9649,-4.9676,-4.9788,-4.9848,-4.9828,-4.9789,-4.967,-4.9656,-4.9552,-4.952,-4.9479,-4.944,-4.9359,0,0]}]]